COSMOS 2151

Last updated on Sun Jun 21 2026 00:02:15 GMT+0000 (Coordinated Universal Time)

1 21422U 91042A 26171.46085270 .00001008 00000+0 77872-4 0 9999 2 21422 82.4961 344.5211 0013746 74.2084 286.0655 15.00445546878604
UTC large
Height (km)
Speed (km/s)
/
Latitude / Longitude
Inclination (degrees)
Orbital Period (minutes)
Azimuth
Elevation
Range (km)
Doppler Factor

Next 0 passes for location: London (51.5072 / 0.1276)

No passes found over London.
COSMOS 2151